Weather past 2 weeks in Saint-Pierre, Saint Pierre and Miquelon

Now
53 °F

Light rain. Overcast.


Feels Like: 47 °F
Forecast: 54 / 58 °F
Wind: 22 mph from Northeast

Location: Saint-Pierre

Current Time: Jul 30, 2015 at 2:58:04 AM

Latest Report: Jul 30, 2015 at 1:00 AM


Visibility: 3 mi

Pressure: 29.85 "Hg

Humidity: 95%

Dew point: 51 °F

Location of Saint-PierreLocation

Historic Weather in Saint-Pierre — Graph

°F

Saint-Pierre temperature yesterday

Maximum temperature yesterday: 59 °F (at 2:00 PM)
Minimum temperature yesterday: 53 °F (at 10:00 PM)
Average temperature yesterday: 55 °F

Past Weeks' High & Low Weather Summary

 TemperatureHumidityPressure
High69 °F (Jul 16, 2:00 PM)99% (Jul 15, 3:00 AM)30.27 "Hg (Jul 15, 3:00 AM)
Low46 °F (Jul 25, 11:00 PM)49% (Jul 18, 5:00 PM)29.38 "Hg (Jul 23, 4:00 AM)
Average55 °F88%29.92 "Hg
* Reported Jul 15 2:00 AM — Jul 30 1:00 AM, Saint-Pierre, Weather by CustomWeather, © 2015

Note: Actual official high and low records may vary slightly from our data, if they occured in-between our weather recording intervals... More about our weather records

Advertising

Saint-Pierre weather history for previous 24 hours

 ConditionsComfort  
Time TempWeatherWind HumidityBarometerVisibility
1:00 AM
Thu, Jul 30
53 °FLight rain. Overcast.22 mph95%29.85 "Hg3 mi
12:00 AM53 °FLight rain. Overcast.15 mph96%29.89 "Hg12 mi
11:00 PM
Wed, Jul 29
53 °FLight rain. Overcast.15 mph97%29.94 "Hg7 mi
10:00 PM53 °FLight rain. Low clouds.14 mph96%29.94 "Hg5 mi
9:00 PM53 °FLow clouds.13 mph95%29.97 "Hg7 mi
8:00 PM53 °FLow clouds.13 mph94%29.97 "Hg7 mi
6:00 PM54 °FLow clouds.13 mph91%30.01 "Hg7 mi
5:00 PM54 °FLow clouds.14 mph92%30.03 "Hg7 mi
4:00 PM55 °FLow clouds.16 mph90%30.04 "Hg7 mi
3:00 PM57 °FLow clouds.13 mph86%30.05 "Hg9 mi
2:00 PM59 °FLow clouds.14 mph84%30.05 "Hg9 mi
1:00 PM58 °FLow clouds.13 mph88%30.07 "Hg10 mi
12:00 PM58 °FLow clouds.14 mph87%30.08 "Hg9 mi
11:00 AM56 °FLow clouds.12 mph91%30.08 "Hg9 mi
10:00 AM56 °FLow clouds.14 mph94%30.08 "Hg9 mi
9:00 AM56 °FLow clouds.14 mph95%30.09 "Hg9 mi
8:00 AM54 °FLow clouds.16 mph97%30.09 "Hg5 mi
7:00 AM54 °FLow clouds.14 mph98%30.09 "Hg5 mi
6:00 AM54 °FLow clouds.18 mph97%30.09 "Hg9 mi
5:00 AM54 °FLow clouds.16 mph97%30.08 "Hg6 mi
4:00 AM54 °FCool.16 mph97%30.09 "Hg6 mi
3:00 AM54 °FCool.15 mph97%30.11 "Hg6 mi
2:00 AM54 °FCool.16 mph96%30.12 "Hg6 mi
Weather by CustomWeather, © 2015

See weather overviewHow to use our weather pages